Time,TemperatureF,DewpointF,PressureIn,WindDirection,WindDirectionDegrees,WindSpeedMPH,WindSpeedGustMPH,Humidity,HourlyPrecipIn,Conditions,Clouds,dailyrainin,SoftwareType,DateUTC
2013-03-13 00:04:00,31.8,28.4,29.85,West,270,0.0,0.0,87,0.00,,,0.00,WUHU21623XXSP,2013-03-13 04:04:00,
2013-03-13 00:09:00,31.8,28.4,29.85,West,270,0.0,0.0,87,0.00,,,0.00,WUHU21623XXSP,2013-03-13 04:09:00,
2013-03-13 00:14:00,32.2,28.8,29.86,West,270,0.0,0.0,87,0.00,,,0.00,WUHU21623XXSP,2013-03-13 04:14:00,
2013-03-13 00:19:00,32.2,28.8,29.86,West,270,0.0,0.0,87,0.00,,,0.00,WUHU21623XXSP,2013-03-13 04:19:00,
2013-03-13 00:24:00,32.2,28.8,29.86,West,270,0.0,0.0,87,0.00,,,0.00,WUHU21623XXSP,2013-03-13 04:24:00,
2013-03-13 00:29:00,32.2,28.8,29.87,West,270,0.0,0.0,87,0.00,,,0.00,WUHU21623XXSP,2013-03-13 04:29:00,
2013-03-13 00:34:00,32.2,28.8,29.86,West,270,0.0,0.0,87,0.00,,,0.00,WUHU21623XXSP,2013-03-13 04:34:00,
2013-03-13 00:39:00,32.2,28.8,29.86,West,270,0.0,0.0,87,0.00,,,0.00,WUHU21623XXSP,2013-03-13 04:39:00,
2013-03-13 00:44:00,32.4,28.9,29.86,West,270,0.0,0.0,87,0.00,,,0.00,WUHU21623XXSP,2013-03-13 04:44:00,
2013-03-13 00:49:00,32.4,28.9,29.88,WNW,292,0.0,0.0,87,0.00,,,0.00,WUHU21623XXSP,2013-03-13 04:49:00,
2013-03-13 00:54:00,32.7,29.3,29.87,WNW,292,0.0,3.4,87,0.00,,,0.00,WUHU21623XXSP,2013-03-13 04:54:00,
2013-03-13 00:59:00,32.7,29.3,29.87,WNW,292,0.0,3.4,87,0.00,,,0.00,WUHU21623XXSP,2013-03-13 04:59:00,
2013-03-13 01:04:00,32.7,29.0,29.87,West,270,0.0,0.0,86,0.00,,,0.00,WUHU21623XXSP,2013-03-13 05:04:00,
2013-03-13 01:09:00,32.7,29.0,29.87,West,270,0.0,0.0,86,0.00,,,0.00,WUHU21623XXSP,2013-03-13 05:09:00,
2013-03-13 01:14:00,32.7,29.3,29.87,West,270,0.0,0.0,87,0.00,,,0.00,WUHU21623XXSP,2013-03-13 05:14:00,
2013-03-13 01:19:00,32.5,29.1,29.87,West,270,0.0,0.0,87,0.00,,,0.00,WUHU21623XXSP,2013-03-13 05:19:00,
2013-03-13 01:24:00,32.5,29.1,29.87,West,270,0.0,0.0,87,0.00,,,0.00,WUHU21623XXSP,2013-03-13 05:24:00,
2013-03-13 01:29:00,32.5,29.1,29.86,West,270,0.0,0.0,87,0.00,,,0.00,WUHU21623XXSP,2013-03-13 05:29:00,
2013-03-13 01:34:00,32.4,28.9,29.86,West,270,0.0,0.0,87,0.00,,,0.00,WUHU21623XXSP,2013-03-13 05:34:00,
2013-03-13 01:39:00,32.5,29.1,29.87,West,270,0.0,0.0,87,0.00,,,0.00,WUHU21623XXSP,2013-03-13 05:39:00,
2013-03-13 01:44:00,32.4,28.9,29.87,West,270,0.0,0.0,87,0.00,,,0.00,WUHU21623XXSP,2013-03-13 05:44:00,
2013-03-13 01:49:00,32.4,28.7,29.87,West,270,0.0,0.0,86,0.00,,,0.00,WUHU21623XXSP,2013-03-13 05:49:00,
2013-03-13 01:54:00,32.4,28.7,29.87,West,270,0.0,0.0,86,0.00,,,0.00,WUHU21623XXSP,2013-03-13 05:54:00,
2013-03-13 01:59:00,32.5,28.8,29.86,West,270,0.0,0.0,86,0.00,,,0.00,WUHU21623XXSP,2013-03-13 05:59:00,
2013-03-13 02:04:00,32.5,28.8,29.87,West,270,0.0,0.0,86,0.00,,,0.00,WUHU21623XXSP,2013-03-13 06:04:00,
2013-03-13 02:09:00,32.4,28.7,29.87,West,270,0.0,0.0,86,0.00,,,0.00,WUHU21623XXSP,2013-03-13 06:09:00,
2013-03-13 02:14:00,32.4,28.7,29.86,West,270,0.0,0.0,86,0.00,,,0.00,WUHU21623XXSP,2013-03-13 06:14:00,
2013-03-13 02:19:00,32.4,28.7,29.87,West,270,0.0,0.0,86,0.00,,,0.00,WUHU21623XXSP,2013-03-13 06:19:00,
2013-03-13 02:24:00,32.2,28.5,29.86,West,270,0.0,0.0,86,0.00,,,0.00,WUHU21623XXSP,2013-03-13 06:24:00,
2013-03-13 02:29:00,32.2,28.5,29.86,West,270,0.0,0.0,86,0.00,,,0.00,WUHU21623XXSP,2013-03-13 06:29:00,
2013-03-13 02:34:00,32.2,28.5,29.87,West,270,0.0,0.0,86,0.00,,,0.00,WUHU21623XXSP,2013-03-13 06:34:00,
2013-03-13 02:39:00,32.2,28.5,29.86,West,270,0.0,0.0,86,0.00,,,0.00,WUHU21623XXSP,2013-03-13 06:39:00,
2013-03-13 02:44:00,32.2,28.5,29.86,West,270,0.0,0.0,86,0.00,,,0.00,WUHU21623XXSP,2013-03-13 06:44:00,
2013-03-13 02:49:00,32.2,28.5,29.86,West,270,0.0,0.0,86,0.00,,,0.00,WUHU21623XXSP,2013-03-13 06:49:00,
2013-03-13 02:54:00,32.2,28.2,29.85,West,270,2.2,2.2,85,0.00,,,0.00,WUHU21623XXSP,2013-03-13 06:54:00,
2013-03-13 02:59:00,32.4,28.4,29.86,West,270,4.3,4.3,85,0.00,,,0.00,WUHU21623XXSP,2013-03-13 06:59:00,
2013-03-13 03:00:00,30.7,26.8,29.84,West,270,0.0,0.0,85,0.00,,,0.00,WUHU21623XXSP,2013-03-13 07:00:00,
2013-03-13 03:04:00,32.5,28.2,29.86,West,270,0.0,4.3,84,0.00,,,0.00,WUHU21623XXSP,2013-03-13 07:04:00,
2013-03-13 03:05:00,30.6,26.6,29.84,West,270,0.0,0.0,85,0.00,,,0.00,WUHU21623XXSP,2013-03-13 07:05:00,
2013-03-13 03:07:00,30.6,26.6,29.84,West,270,0.0,0.0,85,0.00,,,0.00,WUHU21623XXSP,2013-03-13 07:07:00,
2013-03-13 03:09:00,32.4,28.1,29.85,West,270,0.0,0.0,84,0.00,,,0.00,WUHU21623XXSP,2013-03-13 07:09:00,
2013-03-13 03:11:00,30.0,26.1,29.84,West,270,0.0,0.0,85,0.00,,,0.00,WUHU21623XXSP,2013-03-13 07:11:00,
2013-03-13 03:14:00,32.2,27.9,29.85,West,270,0.0,0.0,84,0.00,,,0.00,WUHU21623XXSP,2013-03-13 07:14:00,
2013-03-13 03:19:00,32.2,27.9,29.85,West,270,1.8,1.8,84,0.00,,,0.00,WUHU21623XXSP,2013-03-13 07:19:00,
2013-03-13 03:24:00,31.8,27.6,29.85,West,270,0.0,1.8,84,0.00,,,0.00,WUHU21623XXSP,2013-03-13 07:24:00,
2013-03-13 03:29:00,31.8,27.6,29.85,West,270,0.0,0.0,84,0.00,,,0.00,WUHU21623XXSP,2013-03-13 07:29:00,
2013-03-13 03:34:00,31.6,27.4,29.85,West,270,0.0,0.0,84,0.00,,,0.00,WUHU21623XXSP,2013-03-13 07:34:00,
2013-03-13 03:39:00,31.3,27.3,29.84,West,270,0.0,0.0,85,0.00,,,0.00,WUHU21623XXSP,2013-03-13 07:39:00,
2013-03-13 03:44:00,31.1,27.1,29.85,West,270,0.0,0.0,85,0.00,,,0.00,WUHU21623XXSP,2013-03-13 07:44:00,
2013-03-13 03:49:00,31.1,27.1,29.85,West,270,0.0,0.0,85,0.00,,,0.00,WUHU21623XXSP,2013-03-13 07:49:00,
2013-03-13 03:54:00,30.9,27.0,29.84,West,270,0.0,0.0,85,0.00,,,0.00,WUHU21623XXSP,2013-03-13 07:54:00,
2013-03-13 03:59:00,30.7,26.8,29.84,West,270,0.0,0.0,85,0.00,,,0.00,WUHU21623XXSP,2013-03-13 07:59:00,
2013-03-13 04:04:00,30.7,26.8,29.84,West,270,0.0,0.0,85,0.00,,,0.00,WUHU21623XXSP,2013-03-13 08:04:00,
2013-03-13 04:09:00,30.6,26.6,29.84,West,270,0.0,0.0,85,0.00,,,0.00,WUHU21623XXSP,2013-03-13 08:09:00,
2013-03-13 04:14:00,30.4,26.4,29.84,West,270,0.0,0.0,85,0.00,,,0.00,WUHU21623XXSP,2013-03-13 08:14:00,
2013-03-13 04:19:00,30.0,26.1,29.84,West,270,0.0,0.0,85,0.00,,,0.00,WUHU21623XXSP,2013-03-13 08:19:00,
2013-03-13 04:24:00,29.8,25.9,29.84,West,270,0.0,0.0,85,0.00,,,0.00,WUHU21623XXSP,2013-03-13 08:24:00,
2013-03-13 04:29:00,29.8,25.9,29.84,West,270,0.0,0.0,85,0.00,,,0.00,WUHU21623XXSP,2013-03-13 08:29:00,
2013-03-13 04:34:00,29.7,25.7,29.84,West,270,0.0,0.0,85,0.00,,,0.00,WUHU21623XXSP,2013-03-13 08:34:00,
2013-03-13 04:39:00,29.7,26.0,29.84,West,270,0.0,0.0,86,0.00,,,0.00,WUHU21623XXSP,2013-03-13 08:39:00,
2013-03-13 04:44:00,29.5,25.8,29.84,West,270,0.0,0.0,86,0.00,,,0.00,WUHU21623XXSP,2013-03-13 08:44:00,
2013-03-13 04:49:00,29.1,25.4,29.84,West,270,0.0,0.0,86,0.00,,,0.00,WUHU21623XXSP,2013-03-13 08:49:00,
2013-03-13 04:54:00,29.5,25.8,29.84,West,270,0.0,0.0,86,0.00,,,0.00,WUHU21623XXSP,2013-03-13 08:54:00,
2013-03-13 04:59:00,29.8,26.2,29.83,West,270,0.0,0.0,86,0.00,,,0.00,WUHU21623XXSP,2013-03-13 08:59:00,
2013-03-13 05:04:00,29.8,26.2,29.84,West,270,0.0,0.0,86,0.00,,,0.00,WUHU21623XXSP,2013-03-13 09:04:00,
2013-03-13 05:09:00,29.8,26.2,29.84,West,270,0.0,0.0,86,0.00,,,0.00,WUHU21623XXSP,2013-03-13 09:09:00,
2013-03-13 05:14:00,30.0,26.3,29.84,West,270,0.0,0.0,86,0.00,,,0.00,WUHU21623XXSP,2013-03-13 09:14:00,
2013-03-13 05:19:00,30.0,26.3,29.84,West,270,0.0,0.0,86,0.00,,,0.00,WUHU21623XXSP,2013-03-13 09:19:00,
2013-03-13 05:24:00,30.0,26.3,29.84,West,270,0.0,0.0,86,0.00,,,0.00,WUHU21623XXSP,2013-03-13 09:24:00,
2013-03-13 05:29:00,30.0,26.3,29.84,West,270,0.0,0.0,86,0.00,,,0.00,WUHU21623XXSP,2013-03-13 09:29:00,
2013-03-13 05:34:00,30.0,26.3,29.84,West,270,0.0,0.0,86,0.00,,,0.00,WUHU21623XXSP,2013-03-13 09:34:00,
2013-03-13 05:39:00,30.2,26.5,29.84,West,270,0.0,0.0,86,0.00,,,0.00,WUHU21623XXSP,2013-03-13 09:39:00,
2013-03-13 05:44:00,30.4,26.7,29.84,West,270,0.0,0.0,86,0.00,,,0.00,WUHU21623XXSP,2013-03-13 09:44:00,
2013-03-13 05:49:00,30.6,26.9,29.84,West,270,0.0,0.0,86,0.00,,,0.00,WUHU21623XXSP,2013-03-13 09:49:00,
2013-03-13 05:54:00,30.7,27.1,29.83,West,270,0.0,0.0,86,0.00,,,0.00,WUHU21623XXSP,2013-03-13 09:54:00,
2013-03-13 05:59:00,30.7,26.8,29.83,West,270,0.0,0.0,85,0.00,,,0.00,WUHU21623XXSP,2013-03-13 09:59:00,
2013-03-13 06:04:00,30.7,26.8,29.83,West,270,0.0,0.0,85,0.00,,,0.00,WUHU21623XXSP,2013-03-13 10:04:00,
2013-03-13 06:09:00,30.7,26.8,29.83,West,270,0.0,0.9,85,0.00,,,0.00,WUHU21623XXSP,2013-03-13 10:09:00,
2013-03-13 06:14:00,30.7,26.8,29.84,West,270,0.0,0.9,85,0.00,,,0.00,WUHU21623XXSP,2013-03-13 10:14:00,
2013-03-13 06:19:00,30.7,26.8,29.84,West,270,0.0,0.0,85,0.00,,,0.00,WUHU21623XXSP,2013-03-13 10:19:00,
2013-03-13 06:24:00,30.7,26.8,29.83,West,270,0.0,0.0,85,0.00,,,0.00,WUHU21623XXSP,2013-03-13 10:24:00,
2013-03-13 06:29:00,30.6,26.6,29.83,West,270,0.0,0.0,85,0.00,,,0.00,WUHU21623XXSP,2013-03-13 10:29:00,
2013-03-13 06:34:00,30.4,26.4,29.83,West,270,0.0,0.0,85,0.00,,,0.00,WUHU21623XXSP,2013-03-13 10:34:00,
2013-03-13 06:39:00,30.2,26.2,29.84,West,270,0.0,0.0,85,0.00,,,0.00,WUHU21623XXSP,2013-03-13 10:39:00,
2013-03-13 06:44:00,30.0,26.1,29.83,West,270,0.0,0.0,85,0.00,,,0.00,WUHU21623XXSP,2013-03-13 10:44:00,
2013-03-13 06:49:00,30.0,26.1,29.83,West,270,0.0,0.0,85,0.00,,,0.00,WUHU21623XXSP,2013-03-13 10:49:00,
2013-03-13 06:54:00,30.0,26.1,29.84,West,270,0.0,0.0,85,0.00,,,0.00,WUHU21623XXSP,2013-03-13 10:54:00,
2013-03-13 06:59:00,30.0,26.1,29.84,West,270,0.0,0.0,85,0.00,,,0.00,WUHU21623XXSP,2013-03-13 10:59:00,
2013-03-13 07:04:00,30.0,26.1,29.84,West,270,0.0,0.0,85,0.00,,,0.00,WUHU21623XXSP,2013-03-13 11:04:00,
2013-03-13 07:09:00,29.8,25.9,29.83,West,270,0.0,0.0,85,0.00,,,0.00,WUHU21623XXSP,2013-03-13 11:09:00,
2013-03-13 07:14:00,29.8,25.9,29.83,West,270,0.0,0.0,85,0.00,,,0.00,WUHU21623XXSP,2013-03-13 11:14:00,
2013-03-13 07:19:00,29.8,25.9,29.83,West,270,0.0,0.0,85,0.00,,,0.00,WUHU21623XXSP,2013-03-13 11:19:00,
2013-03-13 07:24:00,29.7,25.7,29.83,West,270,0.0,0.0,85,0.00,,,0.00,WUHU21623XXSP,2013-03-13 11:24:00,
2013-03-13 07:29:00,29.5,25.5,29.83,West,270,0.0,0.0,85,0.00,,,0.00,WUHU21623XXSP,2013-03-13 11:29:00,
2013-03-13 07:34:00,29.5,25.5,29.83,West,270,0.0,0.0,85,0.00,,,0.00,WUHU21623XXSP,2013-03-13 11:34:00,
2013-03-13 07:39:00,29.5,25.5,29.83,West,270,0.0,0.0,85,0.00,,,0.00,WUHU21623XXSP,2013-03-13 11:39:00,
2013-03-13 07:44:00,29.5,25.5,29.83,West,270,0.0,0.0,85,0.00,,,0.00,WUHU21623XXSP,2013-03-13 11:44:00,
2013-03-13 07:49:00,29.8,26.2,29.83,West,270,0.0,0.0,86,0.00,,,0.00,WUHU21623XXSP,2013-03-13 11:49:00,
2013-03-13 07:54:00,29.8,25.9,29.83,West,270,0.0,0.0,85,0.00,,,0.00,WUHU21623XXSP,2013-03-13 11:54:00,
2013-03-13 07:59:00,30.0,26.3,29.83,West,270,0.0,0.0,86,0.00,,,0.00,WUHU21623XXSP,2013-03-13 11:59:00,
2013-03-13 08:04:00,30.4,26.7,29.83,West,270,0.0,0.0,86,0.00,,,0.00,WUHU21623XXSP,2013-03-13 12:04:00,
2013-03-13 08:09:00,30.6,26.9,29.83,West,270,0.0,0.0,86,0.00,,,0.00,WUHU21623XXSP,2013-03-13 12:09:00,
2013-03-13 08:14:00,30.7,27.1,29.83,West,270,0.0,0.0,86,0.00,,,0.00,WUHU21623XXSP,2013-03-13 12:14:00,
2013-03-13 08:19:00,30.9,27.0,29.83,West,270,0.0,0.0,85,0.00,,,0.00,WUHU21623XXSP,2013-03-13 12:19:00,
2013-03-13 08:24:00,31.1,27.1,29.83,West,270,0.0,0.0,85,0.00,,,0.00,WUHU21623XXSP,2013-03-13 12:24:00,
2013-03-13 08:29:00,31.3,27.3,29.83,West,270,0.0,0.0,85,0.00,,,0.00,WUHU21623XXSP,2013-03-13 12:29:00,
2013-03-13 08:34:00,31.6,27.4,29.83,West,270,0.0,1.8,84,0.00,,,0.00,WUHU21623XXSP,2013-03-13 12:34:00,
2013-03-13 08:39:00,31.6,27.4,29.83,West,270,0.0,1.8,84,0.00,,,0.00,WUHU21623XXSP,2013-03-13 12:39:00,
2013-03-13 08:44:00,31.8,27.3,29.83,West,270,0.0,2.2,83,0.00,,,0.00,WUHU21623XXSP,2013-03-13 12:44:00,
2013-03-13 08:49:00,31.8,27.3,29.83,West,270,0.0,2.2,83,0.00,,,0.00,WUHU21623XXSP,2013-03-13 12:49:00,
2013-03-13 08:54:00,31.8,27.3,29.83,West,270,0.0,1.3,83,0.00,,,0.00,WUHU21623XXSP,2013-03-13 12:54:00,
2013-03-13 08:59:00,31.8,27.3,29.83,West,270,0.0,0.0,83,0.00,,,0.00,WUHU21623XXSP,2013-03-13 12:59:00,
2013-03-13 09:04:00,31.8,27.0,29.83,West,270,0.0,0.0,82,0.00,,,0.00,WUHU21623XXSP,2013-03-13 13:04:00,
2013-03-13 09:09:00,31.8,27.0,29.83,West,270,0.0,0.0,82,0.00,,,0.00,WUHU21623XXSP,2013-03-13 13:09:00,
2013-03-13 09:14:00,31.8,26.7,29.84,West,270,7.4,7.4,81,0.00,,,0.00,WUHU21623XXSP,2013-03-13 13:14:00,
2013-03-13 09:19:00,31.8,26.7,29.83,West,270,3.6,7.4,81,0.00,,,0.00,WUHU21623XXSP,2013-03-13 13:19:00,
2013-03-13 09:24:00,32.0,26.6,29.83,West,270,0.9,5.6,80,0.00,,,0.00,WUHU21623XXSP,2013-03-13 13:24:00,
2013-03-13 09:29:00,32.0,26.9,29.83,West,270,0.0,1.8,81,0.00,,,0.00,WUHU21623XXSP,2013-03-13 13:29:00,
2013-03-13 09:34:00,32.2,26.8,29.83,West,270,0.0,1.8,80,0.00,,,0.00,WUHU21623XXSP,2013-03-13 13:34:00,
2013-03-13 09:39:00,32.2,26.8,29.83,West,270,0.0,1.6,80,0.00,,,0.00,WUHU21623XXSP,2013-03-13 13:39:00,
2013-03-13 09:45:00,32.2,26.8,29.83,West,270,0.4,1.6,80,0.00,,,0.00,WUHU21623XXSP,2013-03-13 13:45:00,
2013-03-13 09:50:00,32.2,26.8,29.83,West,270,0.9,0.9,80,0.00,,,0.00,WUHU21623XXSP,2013-03-13 13:50:00,
2013-03-13 09:55:00,32.4,26.9,29.83,West,270,0.0,0.9,80,0.00,,,0.00,WUHU21623XXSP,2013-03-13 13:55:00,
2013-03-13 10:00:00,32.7,27.2,29.83,West,270,0.0,2.9,80,0.00,,,0.00,WUHU21623XXSP,2013-03-13 14:00:00,
2013-03-13 10:05:00,32.9,27.4,29.83,West,270,0.2,2.9,80,0.00,,,0.00,WUHU21623XXSP,2013-03-13 14:05:00,
2013-03-13 10:10:00,33.4,27.2,29.83,West,270,0.0,2.9,78,0.00,,,0.00,WUHU21623XXSP,2013-03-13 14:10:00,
2013-03-13 10:15:00,34.3,27.1,29.83,WNW,292,7.8,8.1,75,0.00,,,0.00,WUHU21623XXSP,2013-03-13 14:15:00,
2013-03-13 10:20:00,34.5,27.6,29.83,West,270,0.0,8.1,76,0.00,,,0.00,WUHU21623XXSP,2013-03-13 14:20:00,
2013-03-13 10:25:00,34.5,27.0,29.83,NW,315,3.8,3.8,74,0.00,,,0.00,WUHU21623XXSP,2013-03-13 14:25:00,
2013-03-13 10:30:00,34.2,26.6,29.83,NNW,337,5.6,5.6,74,0.00,,,0.00,WUHU21623XXSP,2013-03-13 14:30:00,
2013-03-13 10:35:00,34.0,26.5,29.83,NW,315,5.6,5.6,74,0.00,,,0.00,WUHU21623XXSP,2013-03-13 14:35:00,
2013-03-13 10:40:00,34.0,26.1,29.83,SW,225,7.4,7.8,73,0.00,,,0.00,WUHU21623XXSP,2013-03-13 14:40:00,
2013-03-13 10:45:00,34.2,26.3,29.83,West,270,6.0,7.8,73,0.00,,,0.00,WUHU21623XXSP,2013-03-13 14:45:00,
2013-03-13 10:50:00,34.2,26.3,29.83,NW,315,2.5,6.0,73,0.00,,,0.00,WUHU21623XXSP,2013-03-13 14:50:00,
2013-03-13 10:55:00,34.3,26.8,29.83,West,270,0.0,4.9,74,0.00,,,0.00,WUHU21623XXSP,2013-03-13 14:55:00,
2013-03-13 11:00:00,35.4,27.6,29.83,West,270,2.7,3.8,73,0.00,,,0.00,WUHU21623XXSP,2013-03-13 15:00:00,
2013-03-13 11:05:00,36.3,28.1,29.83,WNW,292,6.7,6.7,72,0.00,,,0.00,WUHU21623XXSP,2013-03-13 15:05:00,
2013-03-13 11:10:00,37.0,27.5,29.83,West,270,2.9,6.7,68,0.00,,,0.00,WUHU21623XXSP,2013-03-13 15:10:00,
2013-03-13 11:15:00,35.8,26.2,29.83,WNW,292,7.2,7.2,68,0.00,,,0.00,WUHU21623XXSP,2013-03-13 15:15:00,
2013-03-13 11:20:00,34.9,25.7,29.82,WNW,292,5.1,7.4,69,0.00,,,0.00,WUHU21623XXSP,2013-03-13 15:20:00,
2013-03-13 11:25:00,34.5,25.3,29.82,West,270,5.4,7.4,69,0.00,,,0.00,WUHU21623XXSP,2013-03-13 15:25:00,
2013-03-13 11:30:00,34.3,25.2,29.82,West,270,5.8,6.9,69,0.00,,,0.00,WUHU21623XXSP,2013-03-13 15:30:00,
2013-03-13 11:35:00,34.3,24.4,29.82,WNW,292,8.3,10.5,67,0.00,,,0.00,WUHU21623XXSP,2013-03-13 15:35:00,
2013-03-13 11:40:00,36.1,26.2,29.82,WNW,292,12.1,12.1,67,0.00,,,0.00,WUHU21623XXSP,2013-03-13 15:40:00,
2013-03-13 11:45:00,37.9,27.2,29.82,West,270,11.0,12.1,65,0.00,,,0.00,WUHU21623XXSP,2013-03-13 15:45:00,
2013-03-13 11:50:00,37.9,26.4,29.82,NW,315,11.0,11.0,63,0.00,,,0.00,WUHU21623XXSP,2013-03-13 15:50:00,
2013-03-13 11:55:00,37.2,25.4,29.82,West,270,4.5,11.0,62,0.00,,,0.00,WUHU21623XXSP,2013-03-13 15:55:00,
2013-03-13 12:00:00,38.1,25.8,29.82,WNW,292,6.9,7.2,61,0.00,,,0.00,WUHU21623XXSP,2013-03-13 16:00:00,
2013-03-13 12:05:00,39.0,27.4,29.82,WSW,247,11.2,11.2,63,0.00,,,0.00,WUHU21623XXSP,2013-03-13 16:05:00,
2013-03-13 12:10:00,40.3,28.6,29.82,WNW,292,7.8,11.2,63,0.00,,,0.00,WUHU21623XXSP,2013-03-13 16:10:00,
2013-03-13 12:15:00,38.5,25.3,29.82,WNW,292,6.3,10.5,59,0.00,,,0.00,WUHU21623XXSP,2013-03-13 16:15:00,
2013-03-13 12:20:00,37.0,24.8,29.82,NW,315,5.4,10.5,61,0.00,,,0.00,WUHU21623XXSP,2013-03-13 16:20:00,
2013-03-13 12:25:00,36.3,24.9,29.82,NW,315,8.5,9.8,63,0.00,,,0.00,WUHU21623XXSP,2013-03-13 16:25:00,
2013-03-13 12:30:00,36.5,24.7,29.81,WNW,292,12.1,12.1,62,0.00,,,0.00,WUHU21623XXSP,2013-03-13 16:30:00,
2013-03-13 12:35:00,37.9,26.4,29.81,WNW,292,8.3,12.1,63,0.00,,,0.00,WUHU21623XXSP,2013-03-13 16:35:00,
2013-03-13 12:40:00,39.4,27.0,29.80,NW,315,6.9,12.8,61,0.00,,,0.00,WUHU21623XXSP,2013-03-13 16:40:00,
2013-03-13 12:45:00,38.3,24.7,29.80,NW,315,6.5,12.8,58,0.00,,,0.00,WUHU21623XXSP,2013-03-13 16:45:00,
2013-03-13 12:50:00,37.8,25.5,29.81,NNW,337,9.2,9.2,61,0.00,,,0.00,WUHU21623XXSP,2013-03-13 16:50:00,
2013-03-13 12:55:00,38.3,26.4,29.80,NW,315,2.5,10.3,62,0.00,,,0.00,WUHU21623XXSP,2013-03-13 16:55:00,
2013-03-13 13:00:00,38.3,25.2,29.80,NW,315,4.5,10.3,59,0.00,,,0.00,WUHU21623XXSP,2013-03-13 17:00:00,
2013-03-13 13:05:00,39.4,25.7,29.80,West,270,2.9,5.4,58,0.00,,,0.00,WUHU21623XXSP,2013-03-13 17:05:00,
2013-03-13 13:10:00,39.9,25.4,29.80,NW,315,11.4,11.4,56,0.00,,,0.00,WUHU21623XXSP,2013-03-13 17:10:00,
2013-03-13 13:15:00,40.3,27.5,29.80,NNW,337,11.6,11.6,60,0.00,,,0.00,WUHU21623XXSP,2013-03-13 17:15:00,
2013-03-13 13:20:00,40.8,27.1,29.79,NW,315,6.3,11.6,58,0.00,,,0.00,WUHU21623XXSP,2013-03-13 17:20:00,
2013-03-13 13:25:00,40.3,25.3,29.79,West,270,5.6,7.8,55,0.00,,,0.00,WUHU21623XXSP,2013-03-13 17:25:00,
2013-03-13 13:30:00,39.7,25.6,29.80,WNW,292,8.7,8.7,57,0.00,,,0.00,WUHU21623XXSP,2013-03-13 17:30:00,
2013-03-13 13:35:00,38.5,24.9,29.79,WNW,292,5.6,8.7,58,0.00,,,0.00,WUHU21623XXSP,2013-03-13 17:35:00,
2013-03-13 13:40:00,37.6,23.7,29.79,West,270,6.7,7.4,57,0.00,,,0.00,WUHU21623XXSP,2013-03-13 17:40:00,
2013-03-13 13:45:00,37.4,23.9,29.79,NNW,337,6.7,6.7,58,0.00,,,0.00,WUHU21623XXSP,2013-03-13 17:45:00,
2013-03-13 13:50:00,37.8,23.8,29.79,West,270,7.4,7.4,57,0.00,,,0.00,WUHU21623XXSP,2013-03-13 17:50:00,
2013-03-13 13:55:00,38.5,24.0,29.79,WSW,247,0.7,7.4,56,0.00,,,0.00,WUHU21623XXSP,2013-03-13 17:55:00,
2013-03-13 14:00:00,39.0,25.0,29.79,WSW,247,2.5,4.0,57,0.00,,,0.00,WUHU21623XXSP,2013-03-13 18:00:00,
2013-03-13 14:05:00,39.7,24.8,29.79,WSW,247,9.4,9.4,55,0.00,,,0.00,WUHU21623XXSP,2013-03-13 18:05:00,
2013-03-13 14:10:00,39.0,23.7,29.79,West,270,4.9,9.4,54,0.00,,,0.00,WUHU21623XXSP,2013-03-13 18:10:00,
2013-03-13 14:15:00,38.5,23.6,29.79,West,270,1.6,9.8,55,0.00,,,0.00,WUHU21623XXSP,2013-03-13 18:15:00,
2013-03-13 14:20:00,39.7,25.6,29.79,SSW,202,8.9,9.8,57,0.00,,,0.00,WUHU21623XXSP,2013-03-13 18:20:00,
2013-03-13 14:25:00,39.7,23.4,29.79,WSW,247,2.9,8.9,52,0.00,,,0.00,WUHU21623XXSP,2013-03-13 18:25:00,
2013-03-13 14:30:00,38.8,23.9,29.78,WSW,247,8.1,8.1,55,0.00,,,0.00,WUHU21623XXSP,2013-03-13 18:30:00,
2013-03-13 14:35:00,38.5,24.0,29.78,WSW,247,7.6,8.1,56,0.00,,,0.00,WUHU21623XXSP,2013-03-13 18:35:00,
2013-03-13 14:40:00,38.1,24.2,29.78,West,270,5.4,9.4,57,0.00,,,0.00,WUHU21623XXSP,2013-03-13 18:40:00,
2013-03-13 14:45:00,38.1,25.0,29.79,West,270,3.4,9.4,59,0.00,,,0.00,WUHU21623XXSP,2013-03-13 18:45:00,
2013-03-13 14:50:00,38.1,25.0,29.78,WSW,247,6.9,6.9,59,0.00,,,0.00,WUHU21623XXSP,2013-03-13 18:50:00,
2013-03-13 14:55:00,37.2,25.0,29.78,WSW,247,2.5,8.1,61,0.00,,,0.00,WUHU21623XXSP,2013-03-13 18:55:00,
2013-03-13 15:00:00,36.9,25.1,29.79,SW,225,10.3,10.3,62,0.00,,,0.00,WUHU21623XXSP,2013-03-13 19:00:00,
2013-03-13 15:05:00,36.5,25.5,29.78,West,270,1.6,10.3,64,0.00,,,0.00,WUHU21623XXSP,2013-03-13 19:05:00,
2013-03-13 15:10:00,36.5,25.5,29.78,WSW,247,2.2,7.8,64,0.00,,,0.00,WUHU21623XXSP,2013-03-13 19:10:00,
2013-03-13 15:15:00,36.7,25.6,29.78,West,270,0.0,7.8,64,0.00,,,0.00,WUHU21623XXSP,2013-03-13 19:15:00,
2013-03-13 15:20:00,37.2,25.8,29.78,West,270,2.9,2.9,63,0.00,,,0.00,WUHU21623XXSP,2013-03-13 19:20:00,
2013-03-13 15:25:00,38.1,25.8,29.78,NW,315,6.5,6.5,61,0.00,,,0.00,WUHU21623XXSP,2013-03-13 19:25:00,
2013-03-13 15:30:00,37.9,25.7,29.78,West,270,7.4,7.4,61,0.00,,,0.00,WUHU21623XXSP,2013-03-13 19:30:00,
2013-03-13 15:35:00,37.6,25.3,29.77,West,270,0.4,7.4,61,0.00,,,0.00,WUHU21623XXSP,2013-03-13 19:35:00,
2013-03-13 15:40:00,37.8,25.1,29.78,West,270,3.6,8.1,60,0.00,,,0.00,WUHU21623XXSP,2013-03-13 19:40:00,
2013-03-13 15:45:00,37.9,26.4,29.78,WSW,247,7.2,8.1,63,0.00,,,0.00,WUHU21623XXSP,2013-03-13 19:45:00,
2013-03-13 15:50:00,38.1,25.8,29.78,SW,225,10.5,10.5,61,0.00,,,0.00,WUHU21623XXSP,2013-03-13 19:50:00,
2013-03-13 15:55:00,37.4,25.6,29.78,West,270,2.9,10.5,62,0.00,,,0.00,WUHU21623XXSP,2013-03-13 19:55:00,
2013-03-13 16:00:00,37.6,25.7,29.78,WSW,247,4.0,9.8,62,0.00,,,0.00,WUHU21623XXSP,2013-03-13 20:00:00,
2013-03-13 16:05:00,38.1,26.2,29.77,SW,225,8.1,9.8,62,0.00,,,0.00,WUHU21623XXSP,2013-03-13 20:05:00,
2013-03-13 16:10:00,39.6,27.5,29.77,WSW,247,2.9,9.4,62,0.00,,,0.00,WUHU21623XXSP,2013-03-13 20:10:00,
2013-03-13 16:15:00,40.1,28.5,29.77,WSW,247,7.4,9.4,63,0.00,,,0.00,WUHU21623XXSP,2013-03-13 20:15:00,
2013-03-13 16:20:00,40.8,28.0,29.77,WSW,247,6.9,7.4,60,0.00,,,0.00,WUHU21623XXSP,2013-03-13 20:20:00,
2013-03-13 16:25:00,39.6,27.5,29.77,SSW,202,7.4,7.4,62,0.00,,,0.00,WUHU21623XXSP,2013-03-13 20:25:00,
2013-03-13 16:30:00,39.0,27.0,29.77,West,270,6.7,7.4,62,0.00,,,0.00,WUHU21623XXSP,2013-03-13 20:30:00,
2013-03-13 16:35:00,39.4,28.1,29.77,SW,225,7.4,7.4,64,0.00,,,0.00,WUHU21623XXSP,2013-03-13 20:35:00,
2013-03-13 16:40:00,38.8,26.9,29.77,West,270,0.0,7.4,62,0.00,,,0.00,WUHU21623XXSP,2013-03-13 20:40:00,
2013-03-13 16:45:00,38.5,26.1,29.77,WNW,292,0.0,6.5,61,0.00,,,0.00,WUHU21623XXSP,2013-03-13 20:45:00,
2013-03-13 16:50:00,39.0,27.0,29.77,WNW,292,4.7,5.8,62,0.00,,,0.00,WUHU21623XXSP,2013-03-13 20:50:00,
2013-03-13 16:55:00,37.6,27.2,29.78,NNW,337,4.3,10.3,66,0.00,,,0.00,WUHU21623XXSP,2013-03-13 20:55:00,
2013-03-13 17:00:00,36.3,26.8,29.77,NNW,337,4.5,10.3,68,0.00,,,0.00,WUHU21623XXSP,2013-03-13 21:00:00,
2013-03-13 17:05:00,36.3,27.1,29.77,North,0,1.1,7.2,69,0.00,,,0.00,WUHU21623XXSP,2013-03-13 21:05:00,
2013-03-13 17:10:00,36.3,27.5,29.77,North,0,3.1,3.4,70,0.00,,,0.00,WUHU21623XXSP,2013-03-13 21:10:00,
2013-03-13 17:15:00,36.1,27.3,29.77,NNW,337,2.2,3.4,70,0.00,,,0.00,WUHU21623XXSP,2013-03-13 21:15:00,
2013-03-13 17:20:00,36.0,27.1,29.78,NNW,337,0.0,2.2,70,0.00,,,0.00,WUHU21623XXSP,2013-03-13 21:20:00,
2013-03-13 17:25:00,35.8,27.3,29.78,NNW,337,1.6,4.5,71,0.00,,,0.00,WUHU21623XXSP,2013-03-13 21:25:00,
2013-03-13 17:30:00,35.6,27.4,29.78,West,270,10.7,10.7,72,0.00,,,0.00,WUHU21623XXSP,2013-03-13 21:30:00,
2013-03-13 17:35:00,34.7,28.8,29.78,WNW,292,16.1,16.1,79,0.00,,,0.00,WUHU21623XXSP,2013-03-13 21:35:00,
2013-03-13 17:40:00,31.6,28.0,29.80,West,270,5.8,16.1,86,0.00,,,0.00,WUHU21623XXSP,2013-03-13 21:40:00,
2013-03-13 17:45:00,31.3,27.6,29.79,WSW,247,0.9,16.1,86,0.00,,,0.00,WUHU21623XXSP,2013-03-13 21:45:00,
2013-03-13 17:50:00,31.3,27.6,29.80,WNW,292,7.2,7.2,86,0.00,,,0.00,WUHU21623XXSP,2013-03-13 21:50:00,
2013-03-13 17:55:00,30.9,27.5,29.80,WNW,292,14.8,14.8,87,0.00,,,0.00,WUHU21623XXSP,2013-03-13 21:55:00,
2013-03-13 18:00:00,30.7,27.4,29.80,NNW,337,4.5,14.8,87,0.00,,,0.00,WUHU21623XXSP,2013-03-13 22:00:00,
2013-03-13 18:05:00,30.7,27.4,29.79,NNW,337,6.5,6.7,87,0.00,,,0.00,WUHU21623XXSP,2013-03-13 22:05:00,
2013-03-13 18:10:00,30.9,27.5,29.80,NW,315,0.0,6.7,87,0.00,,,0.00,WUHU21623XXSP,2013-03-13 22:10:00,
2013-03-13 18:15:00,30.9,27.5,29.80,NW,315,3.8,3.8,87,0.00,,,0.00,WUHU21623XXSP,2013-03-13 22:15:00,
2013-03-13 18:20:00,30.7,27.4,29.80,NNW,337,1.3,4.0,87,0.00,,,0.00,WUHU21623XXSP,2013-03-13 22:20:00,
2013-03-13 18:25:00,30.9,27.5,29.80,NNW,337,0.0,4.0,87,0.00,,,0.00,WUHU21623XXSP,2013-03-13 22:25:00,
2013-03-13 18:30:00,30.7,27.4,29.80,NW,315,0.0,2.5,87,0.00,,,0.00,WUHU21623XXSP,2013-03-13 22:30:00,
2013-03-13 18:35:00,30.6,27.2,29.80,WNW,292,0.0,2.5,87,0.00,,,0.00,WUHU21623XXSP,2013-03-13 22:35:00,
2013-03-13 18:40:00,30.0,26.6,29.80,WSW,247,0.0,1.3,87,0.00,,,0.00,WUHU21623XXSP,2013-03-13 22:40:00,
2013-03-13 18:45:00,30.0,26.6,29.80,West,270,0.0,0.0,87,0.00,,,0.00,WUHU21623XXSP,2013-03-13 22:45:00,
2013-03-13 18:50:00,29.8,26.5,29.80,West,270,0.0,0.0,87,0.00,,,0.00,WUHU21623XXSP,2013-03-13 22:50:00,
2013-03-13 18:55:00,29.7,26.3,29.81,WSW,247,0.0,6.7,87,0.00,,,0.00,WUHU21623XXSP,2013-03-13 22:55:00,
2013-03-13 19:00:00,29.8,26.5,29.81,West,270,2.5,6.7,87,0.00,,,0.00,WUHU21623XXSP,2013-03-13 23:00:00,
2013-03-13 19:05:00,29.8,26.5,29.81,WNW,292,7.8,7.8,87,0.00,,,0.00,WUHU21623XXSP,2013-03-13 23:05:00,
2013-03-13 19:10:00,29.8,26.5,29.82,NNW,337,6.9,7.8,87,0.00,,,0.00,WUHU21623XXSP,2013-03-13 23:10:00,
2013-03-13 19:15:00,29.5,26.1,29.82,WNW,292,5.1,9.4,87,0.00,,,0.00,WUHU21623XXSP,2013-03-13 23:15:00,
2013-03-13 19:20:00,29.3,25.9,29.82,NNW,337,7.4,9.4,87,0.00,,,0.00,WUHU21623XXSP,2013-03-13 23:20:00,
2013-03-13 19:25:00,29.1,25.7,29.82,NW,315,0.0,8.3,87,0.00,,,0.00,WUHU21623XXSP,2013-03-13 23:25:00,
2013-03-13 19:30:00,28.9,25.6,29.82,NNW,337,0.0,8.3,87,0.00,,,0.00,WUHU21623XXSP,2013-03-13 23:30:00,
2013-03-13 19:35:00,28.9,25.6,29.81,NW,315,1.8,2.0,87,0.00,,,0.00,WUHU21623XXSP,2013-03-13 23:35:00,
2013-03-13 19:40:00,28.8,25.4,29.82,NNW,337,3.6,3.6,87,0.00,,,0.00,WUHU21623XXSP,2013-03-13 23:40:00,
2013-03-13 19:45:00,28.9,25.6,29.82,NNW,337,4.0,7.4,87,0.00,,,0.00,WUHU21623XXSP,2013-03-13 23:45:00,
2013-03-13 19:50:00,28.8,25.4,29.82,NW,315,0.0,7.4,87,0.00,,,0.00,WUHU21623XXSP,2013-03-13 23:50:00,
2013-03-13 19:55:00,28.8,25.4,29.82,NW,315,2.9,2.9,87,0.00,,,0.00,WUHU21623XXSP,2013-03-13 23:55:00,
2013-03-13 19:57:00,27.3,23.9,29.84,West,270,2.5,6.7,87,0.00,,,0.00,WUHU21623XXSP,2013-03-13 23:57:00,
2013-03-13 19:59:00,27.1,23.8,29.84,WNW,292,3.6,6.7,87,0.00,,,0.00,WUHU21623XXSP,2013-03-13 23:59:00,
2013-03-13 20:00:00,28.8,25.4,29.83,WNW,292,6.5,6.5,87,0.00,,,0.00,WUHU21623XXSP,2013-03-14 00:00:00,
2013-03-13 20:01:00,27.1,23.8,29.84,NW,315,5.4,6.7,87,0.00,,,0.00,WUHU21623XXSP,2013-03-14 00:01:00,
2013-03-13 20:05:00,28.9,25.6,29.83,NNW,337,0.0,6.5,87,0.00,,,0.00,WUHU21623XXSP,2013-03-14 00:05:00,
2013-03-13 20:10:00,28.9,25.6,29.84,WNW,292,6.7,8.3,87,0.00,,,0.00,WUHU21623XXSP,2013-03-14 00:10:00,
2013-03-13 20:15:00,29.1,25.7,29.83,North,0,4.3,8.3,87,0.00,,,0.00,WUHU21623XXSP,2013-03-14 00:15:00,
2013-03-13 20:20:00,29.1,25.7,29.83,NW,315,2.7,6.7,87,0.00,,,0.00,WUHU21623XXSP,2013-03-14 00:20:00,
2013-03-13 20:25:00,28.9,25.6,29.84,NW,315,10.5,10.5,87,0.00,,,0.00,WUHU21623XXSP,2013-03-14 00:25:00,
2013-03-13 20:30:00,28.8,25.4,29.84,NNW,337,7.6,10.5,87,0.00,,,0.00,WUHU21623XXSP,2013-03-14 00:30:00,
2013-03-13 20:35:00,28.6,25.2,29.83,NW,315,6.9,7.6,87,0.00,,,0.00,WUHU21623XXSP,2013-03-14 00:35:00,
2013-03-13 20:40:00,28.2,24.8,29.84,WNW,292,1.1,6.9,87,0.00,,,0.00,WUHU21623XXSP,2013-03-14 00:40:00,
2013-03-13 20:45:00,28.0,24.7,29.84,NW,315,5.8,6.9,87,0.00,,,0.00,WUHU21623XXSP,2013-03-14 00:45:00,
2013-03-13 20:50:00,27.9,24.5,29.84,NW,315,4.3,6.3,87,0.00,,,0.00,WUHU21623XXSP,2013-03-14 00:50:00,
2013-03-13 20:55:00,27.5,24.1,29.84,WNW,292,2.2,6.3,87,0.00,,,0.00,WUHU21623XXSP,2013-03-14 00:55:00,
2013-03-13 21:00:00,27.3,23.9,29.84,WNW,292,6.3,6.7,87,0.00,,,0.00,WUHU21623XXSP,2013-03-14 01:00:00,
2013-03-13 21:05:00,27.1,23.8,29.84,WNW,292,3.6,6.7,87,0.00,,,0.00,WUHU21623XXSP,2013-03-14 01:05:00,
2013-03-13 21:10:00,27.0,23.6,29.84,West,270,1.6,5.4,87,0.00,,,0.00,WUHU21623XXSP,2013-03-14 01:10:00,
2013-03-13 21:15:00,26.8,23.4,29.84,West,270,2.9,5.4,87,0.00,,,0.00,WUHU21623XXSP,2013-03-14 01:15:00,
2013-03-13 21:20:00,26.6,23.2,29.84,WNW,292,2.0,5.1,87,0.00,,,0.00,WUHU21623XXSP,2013-03-14 01:20:00,
2013-03-13 21:25:00,26.4,23.0,29.84,West,270,0.0,6.5,87,0.00,,,0.00,WUHU21623XXSP,2013-03-14 01:25:00,
2013-03-13 21:30:00,26.4,23.0,29.84,West,270,4.0,6.5,87,0.00,,,0.00,WUHU21623XXSP,2013-03-14 01:30:00,
2013-03-13 21:35:00,26.4,23.0,29.84,WSW,247,2.0,4.0,87,0.00,,,0.00,WUHU21623XXSP,2013-03-14 01:35:00,
2013-03-13 21:40:00,26.6,23.2,29.84,West,270,0.9,6.3,87,0.00,,,0.00,WUHU21623XXSP,2013-03-14 01:40:00,
2013-03-13 21:45:00,26.8,23.4,29.84,WNW,292,1.1,6.3,87,0.00,,,0.00,WUHU21623XXSP,2013-03-14 01:45:00,
2013-03-13 21:50:00,26.8,23.4,29.84,WNW,292,2.0,5.6,87,0.00,,,0.00,WUHU21623XXSP,2013-03-14 01:50:00,
2013-03-13 21:55:00,27.1,23.8,29.84,WNW,292,5.4,5.6,87,0.00,,,0.00,WUHU21623XXSP,2013-03-14 01:55:00,
2013-03-13 22:00:00,27.1,23.8,29.84,WSW,247,5.6,5.6,87,0.00,,,0.00,WUHU21623XXSP,2013-03-14 02:00:00,
2013-03-13 22:05:00,27.0,23.6,29.84,WNW,292,3.8,5.6,87,0.00,,,0.00,WUHU21623XXSP,2013-03-14 02:05:00,
2013-03-13 22:10:00,26.6,23.2,29.84,WNW,292,4.5,5.6,87,0.00,,,0.00,WUHU21623XXSP,2013-03-14 02:10:00,
2013-03-13 22:15:00,26.4,22.7,29.84,West,270,3.6,5.6,86,0.00,,,0.00,WUHU21623XXSP,2013-03-14 02:15:00,
2013-03-13 22:20:00,26.4,23.0,29.84,WNW,292,4.0,4.0,87,0.00,,,0.00,WUHU21623XXSP,2013-03-14 02:20:00,
2013-03-13 22:25:00,26.4,22.7,29.84,West,270,0.9,6.5,86,0.00,,,0.00,WUHU21623XXSP,2013-03-14 02:25:00,
2013-03-13 22:30:00,26.4,22.7,29.84,WNW,292,0.4,6.5,86,0.00,,,0.00,WUHU21623XXSP,2013-03-14 02:30:00,
2013-03-13 22:35:00,26.4,22.7,29.84,WNW,292,4.5,5.4,86,0.00,,,0.00,WUHU21623XXSP,2013-03-14 02:35:00,
2013-03-13 22:40:00,26.2,22.3,29.84,West,270,6.9,6.9,85,0.00,,,0.00,WUHU21623XXSP,2013-03-14 02:40:00,
2013-03-13 22:45:00,26.2,22.3,29.84,WNW,292,3.1,6.9,85,0.00,,,0.00,WUHU21623XXSP,2013-03-14 02:45:00,
2013-03-13 22:50:00,26.1,21.8,29.84,WNW,292,2.7,4.9,84,0.00,,,0.00,WUHU21623XXSP,2013-03-14 02:50:00,
2013-03-13 22:55:00,25.9,21.7,29.84,West,270,2.2,5.6,84,0.00,,,0.00,WUHU21623XXSP,2013-03-14 02:55:00,
2013-03-13 22:57:00,25.5,19.6,29.84,NW,315,9.8,9.8,78,0.00,,,0.00,WUHU21623XXSP,2013-03-14 02:57:00,
2013-03-13 22:59:00,25.5,19.6,29.84,SW,225,8.3,9.8,78,0.00,,,0.00,WUHU21623XXSP,2013-03-14 02:59:00,
2013-03-13 23:00:00,25.7,21.5,29.84,West,270,5.4,5.6,84,0.00,,,0.00,WUHU21623XXSP,2013-03-14 03:00:00,
2013-03-13 23:01:00,25.5,19.6,29.84,WSW,247,8.3,9.8,78,0.00,,,0.00,WUHU21623XXSP,2013-03-14 03:01:00,
2013-03-13 23:05:00,25.5,21.1,29.83,SW,225,5.1,5.4,83,0.00,,,0.00,WUHU21623XXSP,2013-03-14 03:05:00,
2013-03-13 23:10:00,25.5,20.5,29.84,West,270,4.3,9.6,81,0.00,,,0.00,WUHU21623XXSP,2013-03-14 03:10:00,
2013-03-13 23:15:00,25.5,20.5,29.84,West,270,6.7,9.6,81,0.00,,,0.00,WUHU21623XXSP,2013-03-14 03:15:00,
2013-03-13 23:20:00,25.5,20.2,29.84,West,270,5.4,8.1,80,0.00,,,0.00,WUHU21623XXSP,2013-03-14 03:20:00,
2013-03-13 23:25:00,25.5,20.2,29.84,NNW,337,6.5,7.6,80,0.00,,,0.00,WUHU21623XXSP,2013-03-14 03:25:00,
2013-03-13 23:27:00,25.2,19.6,29.84,West,270,5.1,6.0,79,0.00,,,0.00,WUHU21623XXSP,2013-03-14 03:27:00,
2013-03-13 23:29:00,25.3,19.7,29.84,NW,315,6.7,6.7,79,0.00,,,0.00,WUHU21623XXSP,2013-03-14 03:29:00,
2013-03-13 23:30:00,25.3,20.1,29.84,West,270,3.8,7.6,80,0.00,,,0.00,WUHU21623XXSP,2013-03-14 03:30:00,
2013-03-13 23:31:00,25.3,19.7,29.84,WNW,292,6.0,6.7,79,0.00,,,0.00,WUHU21623XXSP,2013-03-14 03:31:00,
2013-03-13 23:35:00,25.5,19.9,29.84,West,270,6.5,7.4,79,0.00,,,0.00,WUHU21623XXSP,2013-03-14 03:35:00,
2013-03-13 23:40:00,25.5,19.9,29.84,NW,315,8.3,10.1,79,0.00,,,0.00,WUHU21623XXSP,2013-03-14 03:40:00,
2013-03-13 23:45:00,25.5,19.9,29.84,WSW,247,2.7,10.1,79,0.00,,,0.00,WUHU21623XXSP,2013-03-14 03:45:00,
2013-03-13 23:50:00,25.5,20.2,29.84,West,270,1.1,3.8,80,0.00,,,0.00,WUHU21623XXSP,2013-03-14 03:50:00,
2013-03-13 23:55:00,25.5,19.6,29.84,WSW,247,8.1,8.1,78,0.00,,,0.00,WUHU21623XXSP,2013-03-14 03:55:00,